Hourly Data Report for September 20, 2017

All times are specified in Local Standard Time (LST). Add 1 hour to adjust for Daylight Saving Time where and when it is observed.

BAS CARAQUET
NEW BRUNSWICK

47°48'08.000" N
64°50'00.000" W
5.00 m
8100467
71598
WXS

Download Data

Hourly Data (September 2017)
Hourly Data Report for September 20, 2017
Temp Definition
°C
Dew Point Temp Definition
°C
Rel Hum Definition
%
Wind Dir Definition
10's deg

Wind Spd Definition
km/h
Visibility Definition
km
Stn Press Definition
kPa
Hmdx Definition


Wind Chill Definition


Weather Definition


TIME
00:00 16.7 16.4 98 20 8   101.88     LegendNANA
01:00 16.7 16.4 98 21 9   101.85     LegendNANA
02:00 16.6 16.2 97 19 8   101.81     LegendNANA
03:00 16.3 16.0 98 20 9   101.78     LegendNANA
04:00 15.4 15.2 98 25 4   101.77     LegendNANA
05:00 14.6 14.5 99 27 1   101.76     LegendNANA
06:00 13.4 13.3 99 28 2   101.77     LegendNANA
07:00 14.3 14.3 100 28 5   101.80     LegendNANA
08:00 16.6 16.5 99 27 6   101.78     LegendNANA
09:00 17.5 16.6 94 27 9   101.77     LegendNANA
10:00 18.2 16.6 90 30 16   101.77     LegendNANA
11:00 19.7 17.6 88 27 10   101.69     LegendNANA
12:00 20.7 16.7 78 28 14   101.65 26   LegendNANA
13:00 20.5 15.8 74 29 12   101.63 25   LegendNANA
14:00 21.5 16.9 75 29 12   101.61 27   LegendNANA
15:00 18.3 16.0 87 36 9   101.59     LegendNANA
16:00 19.0 15.7 81 6 6   101.60     LegendNANA
17:00 17.9 14.6 81 11 6   101.63     LegendNANA
18:00 15.7 14.3 91 16 7   101.63     LegendNANA
19:00 14.4 13.5 94 15 4   101.68     LegendNANA
20:00 12.4 12.0 97 17 3   101.71     LegendNANA
21:00 11.5 11.3 99 21 5   101.77     LegendNANA
22:00 11.5 11.4 99 25 5   101.82     LegendNANA
23:00 12.6 12.5 100 25 6   101.82     LegendNANA

Notes on Data Quality.

Legend

  • E = Estimated
  • M = Missing
  • NA = Not Available
  • ‡ = Partner data that is not subject to review by the National Climate Archives
Date modified: